Regional Weather Roundup
Issued by NWS

Home | Current Version | Previous Version | Text Only | Print | Product List | Glossary Off
Versions: 1 2 3 4 5 6 7 8 9 10 11 12 13 14 15 16 17 18 19 20 21 22 23 24 25 26 27 28 29 30 31 32 33 34 35 36 37 38 39 40 41 42 43 44 45 46 47 48 49 50

000
ASUS45 KABQ 231110
RWRNM
WEATHER ROUNDUP FOR NEW MEXICO
NATIONAL WEATHER SERVICE ALBUQUERQUE NM
500 AM MDT WED APR 23 2014

NOTE: "FAIR" MEANS FEW OR NO CLOUDS BELOW 12,000 FEET AGL WITH NO
       SIGNIFICANT WEATHER OR OBSTRUCTIONS TO VISION.

      THIS PRODUCT IS RELEASED AS TWO VERSIONS.  ONE VERSION NEAR
      THE TOP OF THE HOUR CONTAINING PRELIMINARY DATA FROM ALBUQUERQUE
      AND OTHER STATIONS.  A FINAL VERSION WITH ADDITIONAL DATA IS
      ISSUED ABOUT 10 MINUTES AFTER THE HOUR.

NMZ501-503-504-510>518-231200-
NORTHWEST PLATEAU/NORTHCENTRAL MOUNTAINS

CITY           SKY/WX    TMP DP  RH WIND       PRES   REMARKS
FARMINGTON     CLEAR     55  26  32 W12       29.81R
LOS ALAMOS     CLOUDY    56  24  29 S9        29.91S
SANTA FE       MOCLDY    52  30  43 CALM      29.87S
TAOS           CLOUDY    54  28  37 SW3       29.91F
ANGEL FIRE     CLOUDY    50  31  48 S9G16     29.94F

$$
NMZ402-403-502-505>509-231200-
WESTCENTRAL MOUNTAINS/SOUTHWEST MOUNTAINS

CITY           SKY/WX    TMP DP  RH WIND       PRES   REMARKS
GALLUP         CLEAR     50  27  40 SW12      29.90S
GRANTS         PTCLDY    46  22  39 CALM      29.92R
SILVER CITY    MOCLDY    59  25  27 NW12      29.94R

$$
NMZ407-409-411-412-231200-
SOUTHERN DESERTS

CITY           SKY/WX    TMP DP  RH WIND       PRES   REMARKS
LORDSBURG      FAIR      55  30  38 CALM      29.89R
DEMING         MOCLDY    62  25  24 SW8       29.86S
LAS CRUCES     MOCLDY    61  23  23 W8        29.88R
HOLLOMAN AFB   PTCLDY    68  31  25 SW10      29.82R
ALAMOGORDO     PTCLDY    63  32  31 S8        29.85R
T OR C         PTCLDY    60  26  27 S6        29.83S

$$
NMZ519>523-231200-
CENTRAL VALLEYS/CENTRAL HIGHLANDS

CITY           SKY/WX    TMP DP  RH WIND       PRES   REMARKS
ALBUQUERQUE    CLOUDY    59  29  31 SE3       29.84F
MORIARTY ARPT  FAIR      47  32  54 CALM      29.89S
CLINES CORNERS MOCLDY    48  33  56 SW9       29.90F
BELEN          FAIR      60  28  29 NW3       29.84S
SOCORRO        FAIR      54  30  40 S7        29.83S

$$
NMZ524>526-539-540-231200-
SOUTHCENTRAL MOUNTAINS

CITY           SKY/WX    TMP DP  RH WIND       PRES   REMARKS
RUIDOSO        PTCLDY    52  32  46 S12       29.97R

$$
NMZ527>531-231200-
NORTHEAST HIGHLANDS/NORTHEAST PLAINS

CITY           SKY/WX    TMP DP  RH WIND       PRES   REMARKS
LAS VEGAS      PTCLDY    46  38  73 S13       29.88F
RATON          PTCLDY    48  41  76 W8        29.83S
CLAYTON        MOCLDY    58  38  47 S21       29.81S

$$
NMZ532>537-231200-
EASTCENTRAL PLAINS

CITY           SKY/WX    TMP DP  RH WIND       PRES   REMARKS
TUCUMCARI      PTCLDY    63  41  44 S21       29.77F
CANNON AFB     CLOUDY    60  42  52 S15G23    29.84F
CLOVIS AIRPORT CLOUDY    59  43  55 S14       29.87F

$$
NMZ028-029-538-231200-
SOUTHEAST PLAINS

CITY           SKY/WX    TMP DP  RH WIND       PRES   REMARKS
ROSWELL        CLOUDY    64  45  49 S13       29.79F
ARTESIA        CLOUDY    64  46  52 S16       29.81R
CARLSBAD       CLOUDY    63  45  51 S9        29.79F


$$



USA.gov is the U.S. government's official web portal to all federal, state and local government web resources and services.